Total_Precipitation_Accumulation
0.24 0.25 0.34 0.54 0.64 0.62 0.61 0.67 0.89 0.88 0.80 0.76 0.71 0.74 0.75 0.79 0.76 0.68 0.64 0.65 0.69 0.74 0.74 0.70 0.66 0.69 0.72 0.78 0.88 1.03 1.17 1.15 1.01 0.82 0.69 0.64 0.59 0.52 0.51 0.52 0.53 0.60 0.67 0.70
0.12 0.12 0.21 0.37 0.48 0.49 0.46 0.46 0.54 0.61 0.59 0.50 0.48 0.52 0.53 0.55 0.50 0.47 0.43 0.41 0.40 0.41 0.41 0.39 0.35 0.32 0.33 0.40 0.56 0.81 1.06 1.03 0.82 0.65 0.52 0.49 0.50 0.49 0.45 0.45 0.50 0.55 0.54 0.58
0.14 0.10 0.17 0.39 0.41 0.39 0.39 0.31 0.33 0.39 0.38 0.34 0.37 0.44 0.45 0.49 0.49 0.37 0.30 0.29 0.28 0.28 0.27 0.26 0.24 0.22 0.25 0.32 0.44 0.61 0.72 0.69 0.59 0.48 0.45 0.49 0.51 0.46 0.45 0.46 0.47 0.49 0.48 0.49
0.16 0.18 0.43 0.65 0.56 0.48 0.44 0.25 0.18 0.19 0.22 0.26 0.35 0.38 0.39 0.38 0.37 0.36 0.26 0.20 0.20 0.19 0.19 0.22 0.22 0.25 0.29 0.33 0.38 0.43 0.46 0.47 0.42 0.40 0.41 0.44 0.45 0.45 0.51 0.57 0.54 0.53 0.54 0.54
0.26 0.31 0.51 0.59 0.52 0.52 0.51 0.36 0.16 0.13 0.14 0.14 0.14 0.16 0.18 0.19 0.18 0.18 0.14 0.11 0.11 0.11 0.10 0.12 0.12 0.13 0.14 0.16 0.17 0.18 0.18 0.19 0.20 0.20 0.22 0.24 0.25 0.31 0.42 0.49 0.52 0.55 0.59 0.59
0.31 0.39 0.50 0.40 0.25 0.27 0.40 0.49 0.14 0.09 0.08 0.06 0.05 0.09 0.11 0.11 0.13 0.10 0.07 0.08 0.08 0.08 0.08 0.09 0.10 0.09 0.07 0.06 0.07 0.07 0.07 0.07 0.09 0.11 0.11 0.12 0.14 0.18 0.24 0.25 0.31 0.41 0.44 0.47
0.30 0.49 0.67 0.47 0.27 0.26 0.45 0.46 0.12 0.06 0.04 0.03 0.05 0.04 0.06 0.08 0.10 0.09 0.08 0.09 0.08 0.08 0.09 0.10 0.11 0.10 0.09 0.08 0.07 0.08 0.09 0.10 0.10 0.10 0.10 0.10 0.11 0.13 0.16 0.17 0.21 0.26 0.30 0.36
0.39 0.67 0.86 0.65 0.43 0.38 0.31 0.14 0.07 0.03 0.02 0.02 0.03 0.03 0.04 0.06 0.08 0.08 0.08 0.09 0.08 0.07 0.08 0.09 0.09 0.09 0.09 0.10 0.09 0.09 0.10 0.10 0.10 0.10 0.11 0.10 0.11 0.13 0.15 0.16 0.17 0.19 0.21 0.27
0.33 0.54 0.55 0.49 0.37 0.27 0.21 0.11 0.04 0.03 0.02 0.02 0.02 0.02 0.04 0.05 0.05 0.05 0.06 0.07 0.08 0.08 0.08 0.09 0.09 0.09 0.09 0.10 0.11 0.10 0.10 0.10 0.11 0.12 0.12 0.11 0.12 0.15 0.15 0.16 0.18 0.19 0.21 0.28
0.11 0.16 0.19 0.21 0.20 0.14 0.11 0.08 0.03 0.02 0.03 0.02 0.02 0.02 0.03 0.05 0.06 0.06 0.06 0.07 0.07 0.09 0.09 0.10 0.11 0.10 0.12 0.11 0.11 0.10 0.11 0.13 0.14 0.14 0.14 0.14 0.15 0.16 0.17 0.18 0.19 0.23 0.28 0.32
0.12 0.08 0.06 0.10 0.11 0.10 0.07 0.04 0.02 0.02 0.03 0.03 0.03 0.04 0.04 0.05 0.09 0.09 0.09 0.09 0.11 0.12 0.11 0.11 0.12 0.13 0.15 0.15 0.13 0.12 0.12 0.13 0.13 0.13 0.14 0.14 0.15 0.16 0.16 0.16 0.20 0.27 0.33 0.37
0.12 0.08 0.07 0.07 0.07 0.06 0.04 0.03 0.02 0.02 0.02 0.03 0.03 0.03 0.04 0.05 0.06 0.08 0.09 0.09 0.10 0.12 0.12 0.11 0.11 0.13 0.15 0.18 0.20 0.20 0.17 0.14 0.13 0.12 0.13 0.13 0.14 0.14 0.15 0.15 0.20 0.23 0.23 0.25
0.08 0.06 0.06 0.05 0.05 0.04 0.04 0.03 0.02 0.02 0.03 0.04 0.04 0.04 0.04 0.03 0.03 0.06 0.08 0.07 0.07 0.07 0.08 0.09 0.10 0.10 0.10 0.12 0.14 0.15 0.17 0.16 0.14 0.13 0.13 0.14 0.15 0.16 0.18 0.16 0.13 0.14 0.15 0.17
0.05 0.07 0.07 0.05 0.05 0.05 0.04 0.04 0.04 0.04 0.04 0.04 0.04 0.04 0.03 0.03 0.03 0.04 0.05 0.05 0.06 0.07 0.07 0.08 0.08 0.09 0.09 0.08 0.09 0.11 0.13 0.14 0.15 0.17 0.17 0.18 0.20 0.23 0.27 0.29 0.27 0.20 0.16 0.15
0.05 0.06 0.06 0.06 0.06 0.06 0.06 0.06 0.07 0.06 0.06 0.07 0.06 0.04 0.03 0.03 0.04 0.04 0.05 0.06 0.07 0.08 0.07 0.07 0.08 0.08 0.09 0.08 0.08 0.09 0.09 0.11 0.14 0.21 0.25 0.23 0.24 0.30 0.32 0.28 0.24 0.23 0.20 0.18
0.08 0.07 0.07 0.08 0.08 0.07 0.06 0.06 0.06 0.06 0.07 0.07 0.07 0.07 0.06 0.04 0.04 0.04 0.05 0.06 0.07 0.08 0.08 0.09 0.09 0.09 0.09 0.08 0.08 0.08 0.10 0.13 0.15 0.20 0.23 0.23 0.22 0.24 0.26 0.27 0.26 0.27 0.26 0.25
0.10 0.10 0.11 0.12 0.11 0.08 0.06 0.06 0.06 0.06 0.06 0.07 0.08 0.07 0.07 0.06 0.06 0.06 0.05 0.06 0.06 0.07 0.07 0.08 0.09 0.09 0.10 0.09 0.09 0.09 0.11 0.14 0.16 0.19 0.20 0.20 0.21 0.22 0.24 0.27 0.29 0.31 0.30 0.31
0.11 0.11 0.12 0.13 0.12 0.10 0.08 0.07 0.07 0.07 0.06 0.07 0.08 0.09 0.09 0.08 0.08 0.07 0.07 0.07 0.07 0.09 0.09 0.10 0.11 0.11 0.11 0.11 0.11 0.11 0.13 0.15 0.17 0.20 0.21 0.20 0.22 0.25 0.28 0.28 0.27 0.29 0.29 0.31
0.16 0.15 0.15 0.15 0.14 0.12 0.10 0.09 0.09 0.09 0.07 0.07 0.07 0.08 0.09 0.08 0.08 0.07 0.07 0.08 0.08 0.08 0.08 0.10 0.12 0.11 0.10 0.11 0.13 0.14 0.15 0.18 0.20 0.22 0.23 0.23 0.24 0.26 0.29 0.28 0.27 0.29 0.30 0.31
0.17 0.16 0.15 0.14 0.13 0.12 0.11 0.10 0.09 0.10 0.09 0.08 0.08 0.09 0.09 0.09 0.09 0.09 0.09 0.09 0.09 0.09 0.08 0.09 0.12 0.12 0.12 0.13 0.14 0.15 0.17 0.21 0.25 0.27 0.29 0.29 0.29 0.29 0.30 0.29 0.31 0.32 0.32 0.33
0.13 0.12 0.11 0.11 0.10 0.10 0.10 0.10 0.11 0.11 0.09 0.09 0.09 0.09 0.09 0.09 0.09 0.10 0.11 0.10 0.09 0.08 0.08 0.10 0.10 0.10 0.12 0.16 0.18 0.19 0.21 0.23 0.25 0.27 0.28 0.29 0.31 0.31 0.32 0.32 0.33 0.36 0.36 0.35
0.14 0.11 0.10 0.09 0.09 0.08 0.08 0.09 0.09 0.09 0.09 0.09 0.09 0.09 0.08 0.09 0.09 0.09 0.09 0.10 0.09 0.11 0.11 0.11 0.11 0.12 0.17 0.19 0.17 0.18 0.21 0.23 0.26 0.29 0.31 0.32 0.33 0.34 0.35 0.36 0.38 0.40 0.41 0.43
0.15 0.13 0.12 0.10 0.09 0.08 0.10 0.11 0.10 0.09 0.10 0.10 0.10 0.10 0.10 0.10 0.10 0.10 0.10 0.10 0.11 0.14 0.14 0.14 0.16 0.20 0.26 0.21 0.16 0.17 0.20 0.22 0.23 0.26 0.31 0.36 0.38 0.40 0.41 0.41 0.41 0.42 0.44 0.47
0.16 0.14 0.12 0.11 0.10 0.12 0.14 0.13 0.11 0.11 0.11 0.12 0.11 0.11 0.12 0.13 0.13 0.12 0.13 0.15 0.17 0.19 0.17 0.18 0.22 0.27 0.30 0.24 0.22 0.22 0.24 0.25 0.25 0.25 0.28 0.32 0.38 0.40 0.41 0.43 0.44 0.45 0.45 0.45
0.17 0.15 0.15 0.15 0.16 0.18 0.16 0.15 0.15 0.15 0.16 0.18 0.17 0.15 0.14 0.16 0.18 0.17 0.16 0.17 0.20 0.22 0.21 0.23 0.27 0.31 0.30 0.27 0.27 0.27 0.30 0.32 0.34 0.33 0.33 0.35 0.39 0.42 0.44 0.46 0.49 0.52 0.52 0.49
0.17 0.17 0.19 0.22 0.23 0.20 0.19 0.19 0.18 0.17 0.18 0.19 0.18 0.17 0.17 0.18 0.18 0.17 0.17 0.18 0.20 0.25 0.28 0.28 0.29 0.30 0.31 0.33 0.34 0.34 0.34 0.35 0.36 0.36 0.37 0.41 0.44 0.46 0.49 0.53 0.54 0.58 0.58 0.55
0.19 0.20 0.21 0.21 0.20 0.20 0.21 0.21 0.20 0.18 0.18 0.19 0.19 0.17 0.18 0.20 0.20 0.21 0.21 0.21 0.23 0.27 0.33 0.36 0.36 0.37 0.40 0.40 0.40 0.40 0.40 0.41 0.41 0.42 0.43 0.45 0.48 0.50 0.52 0.56 0.60 0.64 0.66 0.64